www.pogodaiklimat.ru

Погода и климат >> Архив погоды >> Чехия >> Кресин-Крамолин


ПОГОДА в Кресин-Крамолине

  • Прогноз погоды в Кресин-Крамолине
  • Монитор погоды в Кресин-Крамолине

АРХИВ ПОГОДЫ в Кресин-Крамолине

Время (UTC), дата Ветер
(напр.,м/с)
 
Видим.   Явления Облачность Т
(С)
Тd
(С)
f
(%)
Тe
(С)
Тes
(С)
Комфортность P
(гПа)
Po
(гПа)
Тmin
(С)
Tmax
(С)
R
(мм)
R24
(мм)
S
(см)
01 13.09 З 3 35 км н/о +15.3 +11.8 80 +15 +15 1030.1 967.8
02 13.09 З 3 35 км н/о +14.2 +11.7 85 +13 +13 1030.3 967.7
03 13.09 З 3 35 км н/о +13.9 +11.6 86 +13 +13 1030.1 967.5
04 13.09 З 3 35 км н/о +13.3 +11.2 87 +12 +12 1030.4 967.6
05 13.09 З 3 35 км н/о +14.3 +11.9 85 +13 +13 1030.3 967.8
06 13.09 З 3 35 км 8/8 1440 м
[Sc]
+15.6 +12.5 82 +15 +15 1030.0 967.8 +11.8 0.1
07 13.09 З 3 35 км ясно +17.9 +13.8 77 +18 +20 1029.5 967.8
08 13.09 З 6 35 км 1/1 1200 м
[Cu hum]
+19.0 +14.1 73 +20 +22 1029.4 967.9
09 13.09 З 5 35 км 6/6 1140 м
[Cu med, cong]
+19.6 +12.8 65 +21 +23 комфорт 1029.3 967.9
10 13.09 З 6 35 км 9/9 1080 м
[Cu med, cong]
+20.2 +12.3 60 +22 +22 комфорт 1029.3 968.0
11 13.09 З 5 35 км 9/9 90 м
[Sc diur, vesp]
+22.0 +14.7 63 +25 +26 комфорт 1028.6 967.8
12 13.09 З 6
{11}
35 км 10/10 1230 м
[Sc]
+19.7 +12.7 64 +21 +21 комфорт 1029.4 968.0
13 13.09 З 5 35 км 10/10 1140 м
[Sc]
+19.6 +12.8 65 +21 +21 комфорт 1029.4 968.0
14 13.09 З 5 35 км 10/10 1080 м
[Sc]
+19.5 +13.1 66 +21 +21 комфорт 1029.5 968.1
15 13.09 З 4 35 км 10/10 1050 м
[Sc]
+18.6 +13.2 71 +19 +19 1029.8 968.2
16 13.09 СЗ 2 35 км н/о +18.6 +13.5 72 +20 +20 1029.5 967.9
17 13.09 З 2 35 км н/о +17.6 +13.8 78 +18 +18 1029.8 968.0
18 13.09 З 2 35 км 9/0 2000 м
[Ac As]
+16.8 +13.7 82 +17 +17 1030.3 968.3 +22.2
19 13.09 З 2 35 км 10/0
[Ac As]
+16.5 +14.0 85 +17 +17 1030.3 968.3
20 13.09 З 3 35 км 9/0
[Ac As]
+14.8 +13.2 90 +14 +14 1030.8 968.4
21 13.09 З 3 35 км н/о +15.0 +12.7 86 +14 +14 1031.1 968.7
22 13.09 З 3 35 км н/о +14.1 +12.4 89 +13 +13 1031.7 969.0
23 13.09 СЗ 3 29 км н/о +14.3 +12.6 90 +13 +13 1031.9 969.3
00 14.09 С 3 25 км н/о +14.1 +12.4 89 +13 +13 1032.2 969.5
01 14.09 С 3 27 км н/о +13.7 +11.8 88 +13 +13 1032.4 969.6
02 14.09 С 2 30 км н/о +13.4 +11.8 90 +13 +13 1032.5 969.6
03 14.09 С 3 28 км н/о +12.8 +11.3 91 +11 +11 1032.4 969.4
04 14.09 27 км н/о +12.1 +11.1 94 1032.7 969.5
05 14.09 С 2 19 км н/о +11.8 +11.1 95 +11 +11 1033.3 970.0
06 14.09 С 4 17 км 9/9 1500 м
[Sc]
+12.4 +11.8 96 +10 +10 1033.4 970.3 +11.6 0.1
07 14.09 С 3 35 км 3/3 1500 м
[Cu hum]
+13.7 +10.5 81 +13 +14 1033.6 970.7
08 14.09 СВ 3 35 км 3/1 930 м
[Cu hum Ci fib]
+14.6 +9.0 69 +14 +18 1033.3 970.6
09 14.09 нст 2 35 км 6/6 900 м
[Cu Sc]
+15.6 +8.6 63 +16 +19 1032.7 970.2
10 14.09 С 3 35 км 5/5 930 м
[Cu hum]
+16.0 +8.5 61 +16 +20 1032.7 970.3
11 14.09 С 3 35 км 9/9 1110 м
[Sc]
+16.1 +8.7 61 +16 +17 1032.6 970.2
12 14.09 С 3 35 км 9/9 1110 м
[Sc]
+16.7 +9.5 62 +17 +17 1031.9 969.7
13 14.09 С 3 35 км 9/9 1230 м
[Sc]
+16.6 +8.8 60 +16 +17 1031.5 969.3
14 14.09 С 2 35 км 6/6 1200 м
[Sc]
+16.4 +9.4 63 +17 +19 1030.8 968.6
15 14.09 нст 1 35 км 6/6 1230 м
[Sc]
+16.6 +7.9 56 +18 +19 1030.2 968.1
16 14.09 СЗ 2 35 км н/о +15.3 +9.0 66 +15 +15 1030.1 967.7
17 14.09 С 1 35 км н/о +15.0 +8.6 66 +16 +16 1029.8 967.4
18 14.09 ЮЗ 1 35 км 1/0
[Ci fib]
+13.3 +8.0 70 +14 +14 1030.5 967.7 +17.7
19 14.09 З 3 35 км ясно +10.6 +7.9 83 +9 +9 1031.4 967.9
20 14.09 З 3 35 км ясно +9.1 +7.6 90 +7 +7 1031.7 967.9
21 14.09 нст 1 35 км н/о +8.4 +7.2 92 +8 +8 1031.8 967.8
22 14.09 30 км н/о +7.7 +6.6 93 1031.4 967.3
23 14.09 35 км н/о +8.3 +6.2 87 1030.8 966.8
00 15.09 нст 1 35 км н/о +7.2 +6.2 93 +6 +6 1030.6 966.4
01 15.09 35 км н/о +6.7 +5.6 93 1030.1 965.8
02 15.09 ЮВ 1 30 км н/о +6.6 +5.6 93 +5 +5 1029.6 965.3
03 15.09 нст 1 30 км н/о +7.4 +5.8 90 +6 +6 1029.1 965.0
04 15.09 25 км н/о +6.4 +5.7 95 1028.5 964.3
05 15.09 25 км н/о +6.5 +5.5 93 1028.3 964.1
06 15.09 СВ 2 35 км 1/0
[Ci fib]
+8.3 +6.9 91 +6 +7 1027.9 964.1 +6.0
07 15.09 35 км 1/0
[Ci fib]
+12.6 +8.7 77 1026.6 963.9
08 15.09 35 км 1/0
[Ci fib]
+17.3 +10.8 66 1025.1 963.5
09 15.09 нст 2 35 км 1/1 1050 м
[Cu hum Ci fib]
+19.1 +12.8 67 +21 +27 комфорт 1024.6 963.4
10 15.09 З 4 35 км 5/5 960 м
[Cu hum]
+19.4 +12.4 64 +21 +24 комфорт 1024.0 962.9
11 15.09 З 4 35 км 4/3 1000 м
[Cu hum Ci fib]
+20.7 +12.7 60 +23 +28 комфорт 1022.8 962.0
12 15.09 З 5 35 км 3/1 930 м
[Cu hum Ci fib]
+21.9 +12.3 54 +24 +28 комфорт 1021.8 961.3
13 15.09 ЮЗ 6 35 км 3/1 930 м
[Cu hum Ci fib]
+22.2 +12.9 56 +25 +27 комфорт 1021.1 960.7
14 15.09 ЮЗ 3 35 км 3/0
[Ci sp]
+22.9 +11.6 49 +25 +29 комфорт 1020.3 960.1
15 15.09 ЮЗ 3 35 км 6/0
[Ci sp]
+23.0 +12.1 50 +26 +27 жарко 1019.4 959.3
16 15.09 ЮЗ 3 35 км н/о +22.0 +13.0 57 +25 +25 комфорт 1019.1 958.8
17 15.09 ЮЗ 4 35 км н/о +19.0 +12.4 66 +20 +20 1019.5 958.6
18 15.09 ЮЗ 4 35 км 8/0
[Ci sp]
+17.1 +11.5 70 +17 +17 1020.2 958.8 +23.3
19 15.09 З 3 35 км 6/0
[Ci fib]
+16.1 +10.8 71 +16 +16 1020.4 958.8
20 15.09 ЮЗ 3 35 км 3/0
[Ci fib]
+16.1 +11.5 74 +16 +16 1020.5 958.9
21 15.09 ЮЗ 3 35 км н/о +15.5 +12.2 81 +15 +15 1020.5 958.8
22 15.09 З 5 35 км н/о +17.3 +12.1 71 +17 +17 1019.7 958.4
23 15.09 З 4 35 км н/о +16.8 +12.0 73 +16 +16 1019.6 958.2
00 16.09 З 3 35 км н/о +15.8 +11.8 77 +15 +15 1019.6 958.0
01 16.09 З 4 35 км н/о +15.3 +11.5 78 +14 +14 1019.7 958.0
02 16.09 З 3 35 км н/о +13.6 +10.9 84 +12 +12 1019.9 957.8
03 16.09 З 3 35 км н/о +11.8 +10.1 89 +10 +10 1020.1 957.6
04 16.09 З 3 35 км н/о +12.0 +10.1 88 +10 +10 1019.9 957.5
05 16.09 З 3 35 км н/о +12.6 +9.4 81 +11 +11 1020.0 957.7
06 16.09 З 3 35 км 8/0
[Ac trans Ci sp]
+13.0 +10.4 84 +12 +12 1019.9 957.7 +10.4
07 16.09 З 2 35 км 9/0
[Ci sp]
+14.9 +10.7 76 +15 +17 1019.9 958.1
08 16.09 З 2 35 км 8/0
[Ci sp]
+16.5 +11.3 71 +17 +21 1019.8 958.3
09 16.09 нст 2 35 км 9/0
[Ci sp]
+16.9 +10.2 65 +17 +23 1019.5 958.1
10 16.09 С 3 35 км 9/0
[Ci sp]
+18.3 +9.4 56 +19 +25 1018.8 957.7
11 16.09 35 км 8/0
[Ci sp]
+19.4 +9.5 53 1017.8 957.0
12 16.09 З 5 35 км 9/0
[Ac trans]
+19.8 +9.7 52 +21 +23 комфорт 1016.8 956.2
13 16.09 З 6 35 км 9/0
[Ac trans]
+20.8 +8.1 44 +22 +23 комфорт 1016.2 955.8
14 16.09 З 5 35 км 9/0
[Ac trans]
+20.8 +6.6 40 +22 +23 комфорт 1015.9 955.5
15 16.09 З 3 35 км 10/0
[Ac As]
+19.6 +8.6 49 +21 +21 комфорт 1015.5 954.9
16 16.09 С 2 35 км н/о +18.2 +10.6 61 +19 +19 1015.8 954.9
17 16.09 СЗ 1 35 км н/о +17.4 +10.9 66 +18 +18 1015.7 954.7
18 16.09 З 2 35 км 10/0
[Ac As]
+16.3 +10.7 69 +16 +16 1016.2 954.9 +21.4
19 16.09 З 3 35 км 10/0
[Ac As]
+16.1 +10.5 69 +16 +16 1016.5 955.1
20 16.09 СЗ 3 35 км 10/0
[Ac As]
+15.3 +11.1 76 +15 +15 1016.8 955.3
21 16.09 СЗ 2 35 км слаб. ливневой дождь н/о +14.2 +11.7 85 +14 +14 1016.8 955.1
22 16.09 З 2 35 км слаб. ливневой дождь н/о +13.9 +11.4 85 +13 +13 1016.4 954.6
23 16.09 СЗ 2 13 км в посл. час осадки {ливн. осадки} н/о +13.4 +12.1 92 +13 +13 1016.4 954.5
00 17.09 З 2 2700 м слаб. ливневой дождь н/о +13.3 +12.8 97 +12 +12 1016.2 954.3 0.3
01 17.09 З 3 7000 м в посл. час дождь {ливн. осадки} н/о +13.4 +12.9 97 +12 +12 1015.8 954.0
02 17.09 С 6 9000 м слаб. ливневой дождь н/о +10.8 +10.4 97 +7 +7 1017.0 954.5
03 17.09 СЗ 4 25 км в посл. час осадки {ливн. осадки, морось} н/о +10.6 +10.1 97 +8 +8 1017.0 954.5
04 17.09 СЗ 4 29 км в посл. час осадки {ливн. осадки} н/о +10.3 +9.7 96 +8 +8 1017.2 954.6
05 17.09 СЗ 5 24 км 10/10 210 м
[Sc]
+9.6 +9.0 96 +6 +6 1017.9 955.1
06 17.09 С 4 25 км 10/9 150 м
[Sc]
+9.5 +8.6 94 +7 +7 1018.1 955.2 +9.4 0.9
07 17.09 С 3 19 км 10/10 660 м
[Sc]
+10.0 +8.7 92 +8 +8 1018.2 955.4
08 17.09 СЗ 4 35 км 9/9 900 м
[Cu Sc]
+12.4 +9.3 81 +10 +11 1017.6 955.4
09 17.09 СЗ 3 35 км 10/9 660 м
[Sc]
+12.5 +8.3 76 +11 +11 1017.5 955.3
10 17.09 З 3 35 км 10/10 570 м
[Sc]
+12.0 +8.3 78 +10 +10 1017.4 955.1
11 17.09 З 5 28 км 9/9 630 м
[Sc]
+13.6 +9.1 74 +12 +12 1016.3 954.4
12 17.09 З 6
{11}
35 км 9/9 720 м
[Cu med, cong]
+13.8 +8.5 70 +12 +12 1015.6 953.8
13 17.09 З 7
{11}
35 км 8/8 900 м
[Cu med, cong]
+15.5 +7.7 60 +14 +14 1014.7 953.3
14 17.09 З 5
{12}
35 км 8/8 1080 м
[Cu med, cong Ci fib]
+14.6 +7.8 64 +13 +14 1014.5 952.9
15 17.09 З 7-12
{12}
35 км 8/3 1410 м
[Cu hum Ci fib]
+16.0 +5.8 51 +15 +15 1013.7 952.4
16 17.09 З 6
{11}
35 км н/о +14.9 +6.2 56 +13 +13 1014.1 952.6
17 17.09 СЗ 4 35 км н/о +13.1 +6.0 62 +12 +12 1014.6 952.7
18 17.09 СЗ 4
{12}
35 км 8/6 1500 м
[Sc diur, vesp Ci fib]
+12.2 +5.8 65 +10 +10 1015.7 953.5 +17.0
19 17.09 З 6 35 км 4/0
[Ac trans Ci fib]
+12.3 +5.9 65 +10 +10 1016.0 953.8
20 17.09 СЗ 8
{13}
35 км 8/8 1140 м
[Sc Ci fib]
+11.0 +5.9 71 +7 +7 1017.5 954.9
21 17.09 СЗ 8-14
{14}
35 км слаб. ливневой дождь {морось} н/о +10.3 +5.5 72 +7 +7 1018.1 955.3
22 17.09 СЗ 8-13
{15}
35 км слаб. ливневой дождь н/о +9.7 +3.7 66 +6 +6 1018.4 955.5
23 17.09 СЗ 7
{14}
35 км {ливн. осадки} н/о +8.8 +4.4 74 +5 +5 1019.4 956.2
00 18.09 СЗ 6-11
{15}
35 км {ливн. осадки, морось} н/о +8.0 +3.2 72 +4 +4 1020.2 956.8 0.1
01 18.09 СЗ 7-13
{13}
35 км н/о +7.4 +2.1 69 +3 +3 1020.6 957.0
02 18.09 З 6
{11}
35 км н/о +7.1 +2.6 73 +3 +3 1021.1 957.4
03 18.09 З 7-13
{13}
35 км н/о +7.7 +2.6 70 +3 +3 1021.4 957.8
04 18.09 СЗ 5
{12}
35 км н/о +6.6 +2.4 75 +3 +3 1022.3 958.4
05 18.09 З 5 35 км н/о +5.7 +2.2 78 +1 +1 1023.3 959.2
06 18.09 СЗ 5
{13}
35 км 1/0
[Ac trans Ci fib]
+6.9 +2.5 74 +3 +3 1023.6 959.7 +5.4 0.1
07 18.09 СЗ 6 35 км 3/3 700 м
[Cu hum]
+8.0 +2.7 69 +4 +5 1023.8 960.2
08 18.09 З 6
{12}
35 км 4/4 750 м
[Cu hum]
+8.9 +2.3 63 +5 +6 1024.3 960.8
09 18.09 СЗ 6
{12}
35 км 4/4 900 м
[Cu hum]
+10.5 +2.4 57 +8 +9 1023.9 960.8
10 18.09 СЗ 6-11
{11}
35 км 8/8 1020 м
[Cu hum]
+11.5 +2.4 54 +9 +10 1023.9 961.0
11 18.09 СЗ 7
{12}
35 км 8/8 1140 м
[Cu hum]
+13.4 +3.4 51 +11 +12 1023.6 961.1
12 18.09 З 6
{12}
30 км 8/8 1350 м
[Cu hum]
+13.7 +2.5 47 +12 +13 1023.1 960.7
13 18.09 З 6 35 км 8/8 1440 м
[Cu hum]
+13.9 +2.0 44 +12 +13 1022.9 960.6
14 18.09 СЗ 5 35 км 8/8 1500 м
[Cu med, cong]
+13.4 +2.5 48 +12 +12 1022.9 960.5
15 18.09 З 5 35 км 6/6 1500 м
[Cu med, cong]
+13.5 +1.7 45 +12 +12 1022.6 960.2
16 18.09 СЗ 5 35 км н/о +11.5 +2.5 54 +9 +9 1022.9 960.1
17 18.09 СЗ 4 35 км н/о +10.1 +2.2 58 +8 +8 1023.4 960.2
18 18.09 З 2 35 км 1/1 1500 м
[Cu hum]
+8.3 +2.2 65 +7 +7 1024.2 960.6 +14.2
19 18.09 З 2 35 км ясно +7.0 +2.1 71 +5 +5 1025.3 961.3
20 18.09 З 2 35 км 6/6 1500 м
[Cu med, cong]
+7.3 +2.7 73 +5 +5 1025.5 961.6
21 18.09 З 3 35 км н/о +7.0 +2.6 74 +4 +4 1025.6 961.6
22 18.09 З 3 35 км н/о +5.1 +2.8 85 +2 +2 1025.9 961.5
23 18.09 З 3 15 км н/о +4.4 +2.5 87 +1 +1 1026.2 961.6
00 19.09 З 3 35 км {дымка} н/о +6.0 +2.9 80 +3 +3 1026.0 961.8
01 19.09 З 3 35 км н/о +5.9 +3.3 83 +3 +3 1026.0 961.8
02 19.09 З 3 35 км н/о +6.0 +3.0 81 +3 +3 1026.1 961.9
03 19.09 З 4 35 км н/о +4.8 +2.7 86 +1 +1 1026.6 962.1
04 19.09 З 4 35 км н/о +4.2 +2.5 89 -0 -0 1026.8 962.1
05 19.09 З 4 29 км н/о +3.7 +2.4 91 -1 -1 1027.2 962.4
06 19.09 З 4 35 км 6/0
[Ci fib]
+5.9 +3.5 85 +2 +2 1027.4 963.1 +3.7
07 19.09 З 4 35 км 4/0
[Ci fib]
+7.5 +4.1 79 +4 +6 1027.6 963.6
08 19.09 З 4 35 км 8/3 1300 м
[Cu med, cong Ci sp]
+9.3 +4.5 72 +7 +8 1027.8 964.2
09 19.09 СЗ 5 35 км 8/6 800 м
[Cu med, cong Ci fib]
+8.7 +3.1 68 +5 +7 1028.4 964.6
10 19.09 СЗ 5 35 км 8/8 960 м
[Cu med, cong]
+9.6 +2.0 59 +7 +8 1028.0 964.4
11 19.09 С 5 35 км 8/8 1080 м
[Cu med, cong]
+11.7 +2.0 51 +10 +11 1027.5 964.4
12 19.09 СЗ 5 35 км 8/8 1260 м
[Cu med, cong]
+11.9 +1.7 50 +10 +11 1027.5 964.5
13 19.09 СЗ 5 35 км 9/9 1500 м
[Cu med, cong]
+10.9 +1.4 52 +8 +9 1027.8 964.5
14 19.09 СЗ 5 35 км 8/4 1300 м
[Cu med, cong Ci sp]
+11.8 +1.1 48 +10 +11 1027.4 964.3
15 19.09 СЗ 4 35 км 8/3 1380 м
[Cu med, cong Ci sp]
+10.8 +1.4 52 +9 +10 1027.7 964.4
16 19.09 СЗ 4 35 км н/о +10.1 +2.0 57 +8 +8 1027.6 964.2
17 19.09 СЗ 3 35 км н/о +8.3 +1.4 62 +6 +6 1028.4 964.5
18 19.09 З 2 35 км 8/0
[Cs]
+6.3 +1.6 72 +4 +4 1029.6 965.2 +12.7
19 19.09 З 3 35 км 8/0
[Cs]
+6.6 +1.8 71 +4 +4 1029.7 965.4
20 19.09 З 4 35 км 8/0
[Cs]
+5.6 +1.6 75 +2 +2 1030.3 965.7
21 19.09 СЗ 3 35 км н/о +5.9 +1.5 73 +3 +3 1030.5 966.0
22 19.09 З 3 35 км н/о +4.6 +1.2 79 +1 +1 1030.9 966.0
23 19.09 З 4 35 км н/о +2.2 +0.7 90 -3 -3 1031.3 965.9
00 20.09 З 4 35 км н/о +4.1 +1.0 80 -0 -0 1030.7 965.7
01 20.09 З 4 35 км н/о +3.4 +0.6 82 -1 -1 1030.4 965.3

 

Местоположение метеостанции Кресин-Крамолин (Чехия): широта 49.58 долгота 15.08 высота над уровнем моря 533 м.

В архиве по умолчанию представлена погода в Кресин-Крамолине за последнюю неделю. Архивные данные за месяц целиком и за предыдущие месяцы, начиная с января 2011 года, Вы можете получить, выбрав интересующий диапазон дат из раскрывающегося списка и нажав кнопку "Ввод!".


*Определитесь, кто Вы:
робот инопланетянин человек

Внимание! Время в таблицах - всемирное. Для получения местного времени необходимо прибавить поправку, которая равна 1 ч.

Смотрите также архив погоды в соседних городах и на ближайших метеорологических станциях:

Погода в Чаславе (Чехия) (44 км)
Погода в Пршибиславе (Чехия) (50 км)
Погода в Церкви Мыслова (Чехия) (53 км)
Погода в Праге-Либус (Чехия) (67 км)
Погода в Пардубице (Чехия) (68 км)
Погода в Темелине (Чехия) (69 км)
Погода в Личау (Австрия) (70 км)
Погода в Свраточе (Чехия) (70 км)
Погода в Прага аэропорту (Чехия) (72 км)
Погода в Ческе-Будеёвице (Чехия) (83 км)

Пояснения к столбцам:

Ветер - указаны скорость ветра в м/с - средняя за 10 мин, порывы в срок и между сроками (в фигурных скобках) и направление, откуда дует ветер: С - северный, СВ - северо-восточный, В - восточный, ЮВ - юго-восточный, Ю - южный, ЮЗ - юго-западный, З - западный, СЗ - северо-западный.
Видимость - горизонтальная дальность видимости в метрах или километрах. При видимости от 1 до 10 км при отсутствии осадков обычно наблюдается дымка, при ухудшении видимости до 1 км и менее - туман. В сухую погоду видимость может ухудшаться дымом, пылью или мглою.
Явления - указаны атмосферные явления, наблюдавшиеся в срок или в последний час перед сроком; фигурными скобками обозначены явления, наблюдавшиеся между сроками (за 1-3 часа до срока); квадратными скобками обозначены град или гололедные отложения с указанием их диаметра в мм.
Облачность - указаны через наклонную черту общая и нижняя облачность в баллах и высота нижней границы облаков в метрах; квадратными скобками обозначены формы облаков: Ci - перистые, Cs - перисто-слоистые, Cc - перисто-кучевые, Ac - высококучевые, As - высокослоистые, Sc - слоисто-кучевые, Ns - слоисто-дождевые, Cu - кучевые, Cb - кучево-дождевые. Подробнее классификацию облаков см. в Атласе облаков (PDF).
T - Температура воздуха - температура, измеренная на высоте 2 м над землей.
Td - Температура точки росы - температура, при понижении до которой содержащийся в воздухе водяной пар достигнет насыщения.
f - Относительная влажность воздуха - влажноcть воздуха, измеренная на высоте 2 м над землей.
Te - Эффективная температура - температура, которую ощущает одетый по сезону человек в тени. Характеристика душности погоды. При расчете учитывается влияние влажности воздуха и скорости ветра на теплоощущения человека.
Tes - Эффективная температура на солнце - температура, которую ощущает человек, с поправкой на солнечный нагрев. Характеристика знойности погоды. Зависит от высоты солнца над горизонтом, облачности и скорости ветра. Ночью, в пасмурную погоду, а также при ветре 12 м/с и более поправка равна нулю.
P - Атмосферное давление - приведенное к уровню моря атмосферное давление.
Po - Атмосферное давление - измеренное на уровне метеостанции атмосферное давление.
Tmin - Минимальная температура - минимум температуры воздуха на высоте 2 м над землей.
Tmax - Максимальная температура - максимум температуры воздуха на высоте 2 м над землей.
R - Количество осадков - Количество выпавших осадков за период времени, мм. При наведении курсора мыши на число - период времени, за который выпало указанное количество осадков.
R24 - Количество осадков - Количество выпавших осадков за 24 часа, мм.
S - Снежный покров - Высота снежного покрова, см. При наведении курсора мыши на число - состояние снежного покрова и степень покрытия местности в баллах.